Location: Casteau
(50.5142°N, 4.0161°E)
Time: 02:55:58
(UTC+00:00)

Transit 2A - Pass Details

Date: 03 August 2021
Orbit: 594 x 964 km, 66.7° (Epoch: 27 September)

Event Time Altitude Azimuth Distance (km) Brightness Sun altitude
Rises 09:16:42 0° 298° (WNW) 2,989 8.6 45.0°
Reaches altitude 10° 09:20:14 10° 326° (NNW) 2,152 8.0 45.4°
Maximum altitude 09:22:30 13° 354° (N) 2,002 8.0 45.7°
Drops below altitude 10° 09:24:52 10° 22° (NNE) 2,261 8.4 46.0°
Sets 09:28:48 0° 49° (NE) 3,286 9.4 46.5°
